Tracking 20241 objects as of 27-Jan-2020
HD Live streaming from Space Station
objects crossing your sky now

ASTRO H DEB

Track ASTRO H DEB now!
10-day predictions


NORAD ID: 42675
Int'l Code: 2016-012T
Perigee: 534.0 km
Apogee: 541.0 km
Inclination: 31.0 °
Period: 95.2 minutes
Semi major axis: 6908 km
RCS: Unknown
Launch date: February 17, 2016
Source: Japan (JPN)
Launch site: TANEGASHIMA SPACE CENTER (TNSTA)

Note: This is SATELLITE DEBRIS
aabbcc
Your satellite tracking list
Your tracking list is empty




NASA's NSSDC Master Catalog

Two Line Element Set (TLE):
1 42675U 16012T   20026.29221249 +.00004026 +00000-0 +22380-3 0  9995
2 42675 031.0118 097.6891 0005037 264.6806 095.3258 15.11919713164963
Source of the keplerian elements: AFSPC